• In Czech Republic
  • List of Countries
  • For 7 days
  • Water Temperature
  • Satellite Maps
  • Weather Map
  • Weather Widgets
  • user-avatar
    Login

    Hourly Weather Kızıltepe

    Today, 12 December, Tuesday

    Time Temperature Precipitation Wind Pressure Humidity
    00:00 +8°C° 0 mm 2 mps 726 mmHg 49%
    01:00 +8°C° 0 mm 2 mps 726 mmHg 50%
    02:00 +7°C° 0 mm 2 mps 726 mmHg 50%
    03:00 +7°C° 0 mm 2 mps 726 mmHg 51%
    04:00 +7°C° 0 mm 2 mps 726 mmHg 52%
    05:00 +7°C° 0 mm 2 mps 726 mmHg 52%
    06:00 +7°C° 0 mm 2 mps 726 mmHg 53%
    07:00 +7°C° 0 mm 2 mps 726 mmHg 51%
    08:00 +8°C° 0 mm 2 mps 726 mmHg 49%
    09:00 +9°C° 0 mm 2 mps 726 mmHg 46%
    10:00 +10°C° 0 mm 2 mps 726 mmHg 41%
    11:00 +13°C° 0 mm 2 mps 726 mmHg 37%
    12:00 +15°C° 0 mm 2 mps 725 mmHg 33%
    13:00 +15°C° 0 mm 2 mps 725 mmHg 32%
    14:00 +16°C° 0 mm 2 mps 725 mmHg 30%
    15:00 +16°C° 0 mm 2 mps 725 mmHg 29%
    16:00 +15°C° 0 mm 2 mps 724 mmHg 33%
    17:00 +13°C° 0 mm 2 mps 724 mmHg 36%
    18:00 +12°C° 0 mm 1 mps 724 mmHg 40%
    19:00 +12°C° 0 mm 1 mps 724 mmHg 39%
    20:00 +10°C° 0 mm 2 mps 724 mmHg 39%
    21:00 +10°C° 0 mm 2 mps 724 mmHg 38%
    22:00 +10°C° 0 mm 2 mps 723 mmHg 38%
    23:00 +10°C° 0 mm 2 mps 723 mmHg 39%

    Tomorrow, 13 December, Wednesday

    Time Temperature Precipitation Wind Pressure Humidity
    00:00 +9°C° 0 mm 2 mps 723 mmHg 39%
    01:00 +9°C° 0 mm 2 mps 723 mmHg 40%
    02:00 +9°C° 0 mm 2 mps 723 mmHg 41%
    03:00 +8°C° 0 mm 2 mps 723 mmHg 41%
    04:00 +8°C° 0 mm 2 mps 722 mmHg 41%
    05:00 +8°C° 0 mm 2 mps 722 mmHg 41%
    06:00 +8°C° 0 mm 2 mps 722 mmHg 41%
    07:00 +9°C° 0 mm 2 mps 722 mmHg 39%
    08:00 +9°C° 0 mm 2 mps 722 mmHg 38%
    09:00 +10°C° 0 mm 2 mps 722 mmHg 36%
    10:00 +13°C° 0 mm 2 mps 722 mmHg 32%
    11:00 +14°C° 0 mm 2 mps 721 mmHg 28%
    12:00 +16°C° 0 mm 2 mps 721 mmHg 24%
    13:00 +18°C° 0 mm 1 mps 721 mmHg 23%
    14:00 +18°C° 0 mm 1 mps 720 mmHg 23%
    15:00 +19°C° 0 mm 1 mps 720 mmHg 23%
    16:00 +16°C° 0 mm 1 mps 719 mmHg 26%
    17:00 +14°C° 0 mm 1 mps 719 mmHg 30%
    18:00 +13°C° 0 mm 1 mps 719 mmHg 34%
    19:00 +13°C° 0 mm 1 mps 719 mmHg 34%
    20:00 +12°C° 0 mm 1 mps 719 mmHg 34%
    21:00 +12°C° 0 mm 1 mps 719 mmHg 35%
    22:00 +12°C° 0 mm 1 mps 719 mmHg 35%
    23:00 +11°C° 0 mm 1 mps 719 mmHg 35%

    Day after tomorrow, 14 December, Thursday

    Time Temperature Precipitation Wind Pressure Humidity
    00:00 +11°C° 0 mm 1 mps 719 mmHg 35%
    01:00 +11°C° 0 mm 1 mps 719 mmHg 35%
    02:00 +10°C° 0 mm 2 mps 719 mmHg 35%
    03:00 +9°C° 0 mm 2 mps 719 mmHg 35%
    04:00 +9°C° 0 mm 2 mps 719 mmHg 36%
    05:00 +9°C° 0 mm 2 mps 719 mmHg 36%
    06:00 +8°C° 0 mm 2 mps 719 mmHg 37%
    07:00 +9°C° 0 mm 2 mps 719 mmHg 36%
    08:00 +10°C° 0 mm 2 mps 720 mmHg 35%
    09:00 +11°C° 0 mm 1 mps 720 mmHg 34%
    10:00 +13°C° 0 mm 2 mps 720 mmHg 31%
    11:00 +15°C° 0 mm 2 mps 720 mmHg 27%
    12:00 +16°C° 0 mm 2 mps 720 mmHg 24%
    13:00 +17°C° 0 mm 2 mps 720 mmHg 24%
    14:00 +17°C° 0 mm 2 mps 719 mmHg 23%
    15:00 +17°C° 0 mm 2 mps 719 mmHg 23%
    16:00 +16°C° 0 mm 1 mps 719 mmHg 27%
    17:00 +14°C° 0 mm 1 mps 719 mmHg 31%
    18:00 +13°C° 0 mm 1 mps 719 mmHg 35%
    19:00 +12°C° 0 mm 1 mps 719 mmHg 36%
    20:00 +12°C° 0 mm 1 mps 719 mmHg 37%
    21:00 +11°C° 0 mm 1 mps 719 mmHg 38%
    22:00 +11°C° 0 mm 1 mps 719 mmHg 38%
    23:00 +11°C° 0 mm 1 mps 719 mmHg 39%

    15 December, Friday

    Time Temperature Precipitation Wind Pressure Humidity
    00:00 +11°C° 0 mm 1 mps 719 mmHg 39%
    01:00 +11°C° 0 mm 1 mps 719 mmHg 40%
    02:00 +10°C° 0 mm 1 mps 719 mmHg 40%
    03:00 +10°C° 0 mm 1 mps 719 mmHg 40%
    04:00 +10°C° 0 mm 1 mps 719 mmHg 40%
    05:00 +10°C° 0 mm 1 mps 719 mmHg 41%
    06:00 +10°C° 0 mm 1 mps 719 mmHg 41%
    07:00 +10°C° 0 mm 1 mps 720 mmHg 40%
    08:00 +11°C° 0 mm 1 mps 720 mmHg 39%
    09:00 +11°C° 0 mm 1 mps 721 mmHg 39%
    10:00 +12°C° 0 mm 1 mps 721 mmHg 35%
    11:00 +14°C° 0 mm 2 mps 721 mmHg 31%
    12:00 +15°C° 0 mm 2 mps 721 mmHg 27%
    13:00 +15°C° 0 mm 2 mps 720 mmHg 27%
    14:00 +16°C° 0 mm 2 mps 720 mmHg 26%
    15:00 +16°C° 0 mm 1 mps 720 mmHg 25%
    16:00 +15°C° 0 mm 1 mps 720 mmHg 29%
    17:00 +14°C° 0 mm 1 mps 720 mmHg 32%
    18:00 +12°C° 0 mm 1 mps 721 mmHg 36%
    19:00 +12°C° 0 mm 1 mps 721 mmHg 37%
    20:00 +11°C° 0 mm 1 mps 721 mmHg 38%
    21:00 +11°C° 0 mm 1 mps 722 mmHg 39%
    22:00 +11°C° 0 mm 1 mps 722 mmHg 39%
    23:00 +10°C° 0 mm 1 mps 722 mmHg 39%

    16 December, Saturday

    Time Temperature Precipitation Wind Pressure Humidity
    00:00 +10°C° 0 mm 1 mps 722 mmHg 40%
    01:00 +10°C° 0 mm 1 mps 722 mmHg 40%
    02:00 +10°C° 0 mm 1 mps 722 mmHg 40%
    03:00 +9°C° 0 mm 1 mps 722 mmHg 40%
    04:00 +9°C° 0 mm 1 mps 722 mmHg 40%
    05:00 +9°C° 0 mm 1 mps 722 mmHg 40%
    06:00 +8°C° 0 mm 2 mps 722 mmHg 40%
    07:00 +9°C° 0 mm 1 mps 723 mmHg 39%
    08:00 +10°C° 0 mm 1 mps 723 mmHg 38%
    09:00 +11°C° 0 mm 1 mps 724 mmHg 37%
    10:00 +12°C° 0 mm 1 mps 724 mmHg 34%
    11:00 +13°C° 0 mm 1 mps 724 mmHg 30%
    12:00 +15°C° 0 mm 1 mps 724 mmHg 27%
    13:00 +15°C° 0 mm 1 mps 723 mmHg 26%
    14:00 +16°C° 0 mm 1 mps 723 mmHg 25%
    15:00 +16°C° 0 mm 1 mps 723 mmHg 25%
    16:00 +15°C° 0 mm 1 mps 723 mmHg 28%
    17:00 +14°C° 0 mm 1 mps 723 mmHg 32%
    18:00 +12°C° 0 mm 1 mps 723 mmHg 35%
    19:00 +12°C° 0 mm 1 mps 723 mmHg 36%
    20:00 +11°C° 0 mm 1 mps 723 mmHg 37%
    21:00 +11°C° 0 mm 1 mps 724 mmHg 37%
    22:00 +11°C° 0 mm 1 mps 724 mmHg 38%
    23:00 +10°C° 0 mm 1 mps 724 mmHg 38%

    17 December, Sunday

    Time Temperature Precipitation Wind Pressure Humidity
    00:00 +10°C° 0 mm 1 mps 724 mmHg 38%
    01:00 +10°C° 0 mm 1 mps 724 mmHg 39%
    02:00 +9°C° 0 mm 1 mps 724 mmHg 39%
    03:00 +9°C° 0 mm 1 mps 724 mmHg 39%
    04:00 +9°C° 0 mm 1 mps 724 mmHg 40%
    05:00 +9°C° 0 mm 1 mps 724 mmHg 40%
    06:00 +8°C° 0 mm 1 mps 724 mmHg 40%
    07:00 +9°C° 0 mm 1 mps 724 mmHg 39%
    08:00 +10°C° 0 mm 1 mps 725 mmHg 39%
    09:00 +11°C° 0 mm 1 mps 725 mmHg 38%
    10:00 +11°C° 0 mm 0 mps 725 mmHg 34%
    11:00 +13°C° 0 mm 0 mps 725 mmHg 30%
    12:00 +14°C° 0 mm 0 mps 725 mmHg 26%
    13:00 +15°C° 0 mm 1 mps 724 mmHg 25%
    14:00 +16°C° 0 mm 1 mps 724 mmHg 25%
    15:00 +16°C° 0 mm 1 mps 724 mmHg 24%
    16:00 +15°C° 0 mm 1 mps 724 mmHg 28%
    17:00 +13°C° 0 mm 1 mps 724 mmHg 31%
    18:00 +11°C° 0 mm 0 mps 724 mmHg 35%
    19:00 +11°C° 0 mm 0 mps 724 mmHg 35%
    20:00 +11°C° 0 mm 0 mps 724 mmHg 36%
    21:00 +11°C° 0 mm 1 mps 724 mmHg 36%
    22:00 +10°C° 0 mm 0 mps 724 mmHg 36%
    23:00 +10°C° 0 mm 0 mps 725 mmHg 36%
    Show more